www.pogodaiklimat.ru

Погода и климат >> Архив погоды >> Италия >> Тренто


ПОГОДА в Тренто

  • Прогноз погоды в Тренто
  • Монитор погоды в Тренто

АРХИВ ПОГОДЫ в Тренто

Время (UTC), дата Ветер
(напр.,м/с)
 
Видим.   Явления Облачность Т
(С)
Тd
(С)
f
(%)
Тe
(С)
Тes
(С)
Комфортность P
(гПа)
Po
(гПа)
Тmin
(С)
Tmax
(С)
R
(мм)
R24
(мм)
S
(см)
01 17.03 штиль 0 н/о н/о +5.9 +2.1 77 +5 +5 1016.7 993.5
02 17.03 штиль 0 н/о н/о +5.7 +2.3 79 +5 +5 1016.6 993.4
03 17.03 штиль 0 н/о н/о +4.7 +1.7 81 +4 +4 1016.5 993.2
04 17.03 штиль 0 н/о н/о +4.6 +2.1 84 +4 +4 1016.5 993.2
05 17.03 штиль 0 н/о н/о +5.2 +2.9 85 +4 +4 1016.6 993.4
06 17.03 штиль 0 н/о н/о +5.9 +3.7 86 +5 +5 1016.5 993.3 +4.3 1
07 17.03 штиль 0 н/о н/о +6.6 +4.2 85 +6 +6 1016.9 993.8
08 17.03 штиль 0 н/о н/о +7.4 +4.7 83 +7 +7 1016.9 993.8
09 17.03 штиль 0 н/о н/о +9.5 +5.0 73 +9 +9 1016.6 993.7
10 17.03 штиль 0 н/о н/о +11.0 +4.2 63 +11 +11 1015.8 993.1
11 17.03 С 2 н/о н/о +12.4 +3.3 54 +12 +12 1014.8 992.2
12 17.03 С 2 н/о н/о +14.2 +3.8 50 +14 +14 1013.5 991.0
13 17.03 С 3 н/о н/о +15.1 +4.1 48 +15 +15 1012.1 989.7
14 17.03 Ю 6 н/о н/о +15.7 +5.2 50 +14 +14 1011.6 989.3
15 17.03 Ю 6 н/о н/о +16.2 +5.7 50 +15 +15 1010.9 988.7
16 17.03 В 3 н/о н/о +16.0 +4.3 46 +16 +16 1010.5 988.2
17 17.03 ЮЗ 3 н/о н/о +15.3 +4.3 48 +15 +15 1010.3 988.0
18 17.03 С 3 н/о н/о +14.2 +4.7 53 +14 +14 1010.4 988.0 +16.8
19 17.03 Ю 5 н/о н/о +14.1 +4.6 53 +13 +13 1010.3 987.9
20 17.03 Ю 6 н/о н/о +13.6 +4.4 54 +12 +12 1010.2 987.8
21 17.03 Ю 3 н/о н/о +13.6 +4.6 54 +13 +13 1010.0 987.6
22 17.03 Ю 3 н/о н/о +13.8 +4.8 55 +13 +13 1009.9 987.5
23 17.03 Ю 5 н/о н/о +12.9 +5.2 59 +11 +11 1009.5 987.0
00 18.03 Ю 4 н/о н/о +12.8 +5.4 61 +11 +11 1009.0 986.5
01 18.03 Ю 4 н/о н/о +12.4 +5.5 63 +11 +11 1008.6 986.1
02 18.03 Ю 3 н/о н/о +12.1 +6.1 67 +11 +11 1008.4 985.9
03 18.03 СЗ 16 н/о н/о +7.3 +2.3 71 +1 +1 1011.2 988.2
04 18.03 СЗ 7 н/о н/о +6.0 +2.4 78 +1 +1 1014.1 991.0
05 18.03 С 6 н/о н/о +6.6 +1.2 68 +2 +2 1015.3 992.2
06 18.03 С 5 н/о н/о +6.1 +0.8 69 +2 +2 1016.4 993.2 +5.9 4 1
07 18.03 С 4 н/о н/о +6.1 +1.2 71 +2 +2 1016.7 993.5
08 18.03 СЗ 9 н/о н/о +6.7 +0.5 65 +2 +2 1016.9 993.8
09 18.03 С 8 н/о н/о +7.5 -0.3 58 +3 +3 1016.8 993.8
10 18.03 СЗ 11 н/о н/о +8.3 -1.1 52 +3 +3 1016.7 993.7
11 18.03 СЗ 11 н/о н/о +10.8 -2.4 40 +7 +7 1016.5 993.7
12 18.03 СЗ 11 н/о н/о +11.5 -3.6 35 +8 +8 1016.0 993.3
13 18.03 С 9 н/о н/о +12.8 -4.9 29 +10 +10 1015.1 992.5
14 18.03 С 8 н/о н/о +13.6 -5.7 26 +11 +11 1014.7 992.2
15 18.03 СЗ 7 н/о н/о +13.9 -5.9 25 +12 +12 1014.5 992.0
16 18.03 СЗ 6 н/о н/о +13.4 -6.9 24 +12 +12 1014.9 992.4
17 18.03 С 4 н/о н/о +12.3 -7.3 25 +11 +11 1015.8 993.2
18 18.03 СВ 3 н/о н/о +11.2 -8.8 24 +10 +10 1017.2 994.4 +14.1
19 18.03 С 6 н/о н/о +10.4 -9.4 24 +8 +8 1018.4 995.5
20 18.03 С 5 н/о н/о +9.6 -9.6 25 +7 +7 1019.5 996.5
21 18.03 С 4 н/о н/о +9.1 -10.0 25 +7 +7 1020.2 997.2
22 18.03 С 3 н/о н/о +8.1 -9.0 29 +7 +7 1020.7 997.6
23 18.03 С 5 н/о н/о +7.2 -8.5 32 +4 +4 1021.1 997.9
00 19.03 СВ 4 н/о н/о +6.4 -8.9 33 +4 +4 1021.4 998.2
01 19.03 СВ 4 н/о н/о +6.7 -7.8 35 +4 +4 1021.7 998.4
02 19.03 С 3 н/о н/о +5.9 -7.8 37 +4 +4 1021.7 998.4
03 19.03 СВ 2 н/о н/о +5.7 -7.7 37 +4 +4 1021.9 998.6
04 19.03 В 4 н/о н/о +5.3 -7.3 40 +2 +2 1022.2 998.8
05 19.03 СВ 4 н/о н/о +5.1 -7.5 40 +2 +2 1022.5 999.1
06 19.03 СВ 5 н/о н/о +4.8 -7.2 41 +1 +1 1023.2 999.8 +4.6 508
07 19.03 СВ 4 н/о н/о +4.9 -6.8 42 +1 +1 1023.9 1000.5
08 19.03 СВ 4 н/о н/о +6.6 -6.8 38 +4 +4 1024.1 1000.8
09 19.03 В 4 н/о н/о +8.1 -5.9 36 +6 +6 1024.0 1000.9
10 19.03 С 3 н/о н/о +10.7 -7.2 28 +9 +9 1023.3 1000.4
11 19.03 СЗ 6 н/о н/о +12.4 -10.1 20 +11 +11 1022.7 999.9
12 19.03 З 4 н/о н/о +13.8 -10.9 17 +13 +13 1021.9 999.2
13 19.03 СЗ 6 н/о н/о +14.9 -11.6 15 +14 +14 1021.2 998.6
14 19.03 СЗ 6 н/о н/о +15.3 -12.1 14 +14 +14 1020.6 998.1
15 19.03 СЗ 6 н/о н/о +15.6 -11.0 15 +15 +15 1020.6 998.1
16 19.03 Ю 9 н/о н/о +14.5 -4.9 26 +12 +12 1021.0 998.4
17 19.03 Ю 7 н/о н/о +11.8 -4.5 32 +9 +9 1022.4 999.5
18 19.03 Ю 4 н/о н/о +10.9 -4.5 34 +9 +9 1024.2 1001.2 +16.1
19 19.03 З 2 н/о н/о +8.8 -3.9 40 +8 +8 1025.7 1002.5
20 19.03 штиль 0 н/о н/о +6.9 -4.0 46 +7 +7 1026.7 1003.4
21 19.03 С 1 н/о н/о +5.4 -3.3 53 +5 +5 1027.7 1004.2
22 19.03 В 1 н/о н/о +4.2 -4.9 52 +3 +3 1028.5 1004.9
23 19.03 В 2 н/о н/о +3.2 -5.6 52 +1 +1 1029.1 1005.4
00 20.03 ЮЗ 1 н/о н/о +2.4 -4.2 62 +3 +3 1029.7 1005.9
01 20.03 СВ 1 н/о н/о +1.8 -5.7 57 +1 +1 1030.2 1006.4
02 20.03 штиль 0 н/о н/о +1.0 -4.5 67 0 0 1030.4 1006.5
03 20.03 СВ 1 н/о н/о +0.9 -4.0 70 -1 -1 1030.5 1006.6
04 20.03 штиль 0 н/о н/о +0.9 -4.4 68 0 0 1030.8 1006.9
05 20.03 штиль 0 н/о н/о +0.6 -3.9 72 -0 -0 1031.4 1007.4
06 20.03 штиль 0 н/о н/о +0.4 -4.7 69 -0 -0 1032.1 1008.1 +0.1 0
07 20.03 штиль 0 н/о н/о +1.3 -4.2 67 +1 +1 1032.7 1008.8
08 20.03 СЗ 1 н/о н/о +5.8 -2.4 56 +6 +6 1032.7 1009.2
09 20.03 штиль 0 н/о н/о +8.6 -5.1 37 +9 +9 1032.3 1009.0
10 20.03 С 2 н/о н/о +10.4 -7.9 27 +10 +10 1031.8 1008.6
11 20.03 СЗ 2 н/о н/о +12.1 -7.5 25 +12 +12 1030.8 1007.8
12 20.03 ЮВ 3 н/о н/о +13.7 -11.0 17 +13 +13 1029.9 1007.0
13 20.03 З 3 н/о н/о +15.3 -12.1 14 +15 +15 1028.5 1005.8
14 20.03 ЮЗ 4 н/о н/о +16.4 -12.2 13 +16 +16 1027.5 1004.9
15 20.03 ЮЗ 3 н/о н/о +16.0 -11.6 14 +16 +16 1027.1 1004.5
16 20.03 В 2 н/о н/о +15.3 -12.1 14 +15 +15 1027.2 1004.5
17 20.03 ЮЗ 6 н/о н/о +12.7 -6.0 27 +11 +11 1028.2 1005.3
18 20.03 Ю 6 н/о н/о +11.8 -4.5 32 +10 +10 1029.5 1006.5 +16.9
19 20.03 ЮЗ 3 н/о н/о +10.6 -3.6 37 +9 +9 1030.6 1007.5
20 20.03 Ю 4 н/о н/о +9.3 -3.4 41 +7 +7 1031.8 1008.6
21 20.03 штиль 0 н/о н/о +7.6 -4.0 44 +7 +7 1032.5 1009.1
22 20.03 ЮВ 1 н/о н/о +5.0 -4.2 51 +6 +6 1033.5 1009.8
23 20.03 В 1 н/о н/о +4.2 -3.7 56 +5 +5 1033.9 1010.2
00 21.03 В 1 н/о н/о +3.3 -3.4 61 +4 +4 1034.4 1010.6
01 21.03 В 1 н/о н/о +2.6 -3.6 64 +3 +3 1034.7 1010.8
02 21.03 СВ 1 н/о н/о +1.9 -3.5 67 +2 +2 1034.5 1010.6
03 21.03 В 1 н/о н/о +1.3 -3.6 70 -0 -0 1034.4 1010.4
04 21.03 С 1 н/о н/о +0.9 -3.5 72 +1 +1 1034.7 1010.7
05 21.03 В 1 н/о н/о +0.8 -2.8 77 +1 +1 1035.1 1011.1
06 21.03 В 1 н/о н/о +1.0 -2.5 77 +1 +1 1035.7 1011.7 +0.6 1
07 21.03 В 1 н/о н/о +1.6 -2.0 77 +1 +1 1036.1 1012.1
09 21.03 штиль 0 н/о н/о +8.4 -3.3 43 +8 +8 1035.3 1011.9
10 21.03 СЗ 2 н/о н/о +9.8 -4.7 36 +9 +9 1034.4 1011.2
11 21.03 ЮЗ 1 н/о н/о +12.3 -4.5 31 +13 +13 1033.4 1010.4
12 21.03 З 1 н/о н/о +13.6 -6.7 24 +14 +14 1032.1 1009.2
13 21.03 Ю 1 н/о н/о +16.0 -3.6 26 +17 +17 1030.7 1008.0
15 21.03 ЮЗ 5 н/о н/о +18.1 -5.3 20 +18 +18 1028.6 1006.1
17 21.03 З 2 н/о н/о +14.4 -4.5 27 +14 +14 1029.3 1006.5
18 21.03 штиль 0 н/о н/о +12.3 -4.1 32 +12 +12 1030.1 1007.1 +18.5
20 21.03 штиль 0 н/о н/о +7.4 -3.6 46 +7 +7 1032.1 1008.7
21 21.03 штиль 0 н/о н/о +6.2 -3.3 51 +6 +6 1032.9 1009.4
22 21.03 штиль 0 н/о н/о +5.2 -3.2 55 +5 +5 1033.2 1009.6
23 21.03 штиль 0 н/о н/о +4.6 -3.1 57 +4 +4 1033.5 1009.8
00 22.03 штиль 0 н/о н/о +4.1 -2.6 62 +4 +4 1033.6 1009.9
01 22.03 штиль 0 н/о н/о +3.4 -2.8 64 +3 +3 1033.7 1009.9
02 22.03 штиль 0 н/о н/о +3.1 -2.7 66 +2 +2 1033.6 1009.8
03 22.03 штиль 0 н/о н/о +2.7 -2.9 67 +2 +2 1033.6 1009.7
04 22.03 штиль 0 н/о н/о +2.2 -3.0 68 +2 +2 1033.6 1009.7
05 22.03 В 2 н/о н/о +1.8 -3.2 69 -1 -1 1033.8 1009.9
06 22.03 В 1 н/о н/о +2.4 -2.6 70 +1 +1 1034.1 1010.2 +1.7 702
07 22.03 В 1 н/о н/о +2.9 -2.1 70 +3 +3 1034.3 1010.5
08 22.03 СЗ 2 н/о н/о +8.0 -1.4 51 +7 +7 1033.6 1010.2
09 22.03 С 3 н/о н/о +10.4 -3.8 37 +9 +9 1032.8 1009.6
10 22.03 СВ 1 н/о н/о +12.6 -3.8 32 +13 +13 1031.8 1008.8
11 22.03 З 1 н/о н/о +14.3 -4.1 28 +16 +16 1030.7 1008.0
12 22.03 З 1 н/о н/о +17.3 -4.1 23 +18 +18 1029.2 1006.7
13 22.03 Ю 4 н/о н/о +18.9 -4.6 20 +19 +19 1027.9 1005.5
14 22.03 З 2 н/о н/о +21.1 -5.7 16 +20 +20 1026.7 1004.5
15 22.03 ЮЗ 4 н/о н/о +21.5 -6.3 15 +20 +20 1025.9 1003.7
16 22.03 З 3 н/о н/о +20.2 -4.2 19 +20 +20 1025.5 1003.2
17 22.03 ЮЗ 3 н/о н/о +17.6 -4.5 22 +18 +18 1026.0 1003.6
18 22.03 штиль 0 н/о н/о +16.3 -1.9 29 +16 +16 1026.8 1004.2 +21.9
19 22.03 штиль 0 н/о н/о +14.2 -2.0 33 +14 +14 1027.8 1005.0
20 22.03 штиль 0 н/о н/о +10.9 -2.6 39 +11 +11 1028.5 1005.5
21 22.03 штиль 0 н/о н/о +9.2 -1.9 46 +9 +9 1028.9 1005.7
22 22.03 штиль 0 н/о н/о +7.7 -1.9 51 +7 +7 1029.2 1005.9
23 22.03 штиль 0 н/о н/о +7.0 -2.0 53 +7 +7 1029.5 1006.1
00 23.03 штиль 0 н/о н/о +6.1 -1.9 56 +6 +6 1029.5 1006.0
01 23.03 штиль 0 н/о н/о +5.6 -1.6 60 +5 +5 1029.5 1006.0
02 23.03 штиль 0 н/о н/о +5.2 -1.6 61 +5 +5 1029.3 1005.7
03 23.03 штиль 0 н/о н/о +5.1 -1.4 63 +5 +5 1029.1 1005.6
04 23.03 штиль 0 н/о н/о +4.6 -1.7 64 +4 +4 1029.2 1005.6
05 23.03 штиль 0 н/о н/о +3.9 -2.0 65 +3 +3 1029.4 1005.7
06 23.03 штиль 0 н/о н/о +4.0 -1.6 67 +3 +3 1029.5 1005.9 +3.6 0
07 23.03 штиль 0 н/о н/о +4.9 -0.8 67 +4 +4 1029.7 1006.2
08 23.03 В 1 н/о н/о +9.8 +1.1 55 +11 +11 1029.1 1006.0
09 23.03 С 2 н/о н/о +12.3 -2.1 37 +12 +12 1028.4 1005.5
10 23.03 СЗ 2 н/о н/о +15.0 -0.1 36 +15 +15 1027.1 1004.5
11 23.03 С 2 н/о н/о +16.7 -1.5 29 +17 +17 1025.9 1003.4
12 23.03 З 1 н/о н/о +19.6 -1.0 25 +21 +21 комфорт 1024.6 1002.3
13 23.03 ЮЗ 1 н/о н/о +21.4 -0.1 24 +21 +21 комфорт 1023.1 1001.0
14 23.03 Ю 2 н/о н/о +22.7 -1.5 20 +22 +22 комфорт 1021.8 999.9
15 23.03 З 4 н/о н/о +24.3 -4.0 15 +22 +22 комфорт 1021.1 999.3
16 23.03 С 3 н/о н/о +22.9 -3.5 17 +21 +21 комфорт 1021.2 999.2
18 23.03 В 2 н/о н/о +18.8 -0.2 28 +20 +20 1022.5 1000.2 +24.5
21 23.03 штиль 0 н/о н/о +11.3 -0.6 44 +11 +11 1025.5 1002.5

 

Местоположение метеостанции Тренто (Италия): широта 46.02 долгота 11.12 высота над уровнем моря 188 м.

В архиве по умолчанию представлена погода в Тренто за последнюю неделю. Архивные данные за месяц целиком и за предыдущие месяцы, начиная с января 2011 года, Вы можете получить, выбрав интересующий диапазон дат из раскрывающегося списка и нажав кнопку "Ввод!".


*Определитесь, кто Вы:
робот инопланетянин человек

Внимание! Время в таблицах - всемирное. Для получения местного времени необходимо прибавить поправку, которая равна 1 ч.

Смотрите также архив погоды в соседних городах и на ближайших метеорологических станциях:

Погода на Паганелле (Италия) (16 км)
Погода в Дезенцано (Италия) (59 км)
Погода на Пассо Ролле (Италия) (60 км)
Погода в Обергургле (Австрия) (62 км)
Погода в Санта-Мария-Валь-Мюстаире (Швейцария) (83 км)
Погода в Тревизо аэропорту (Италия) (85 км)
Погода в Роббие (Швейцария) (89 км)
Погода в Тревизо (Италия) (92 км)
Погода в Сан Валентино Алла Мута (Италия) (93 км)
Погода в Брешиа (Италия) (93 км)

Пояснения к столбцам:

Ветер - указаны скорость ветра в м/с - средняя за 10 мин, порывы в срок и между сроками (в фигурных скобках) и направление, откуда дует ветер: С - северный, СВ - северо-восточный, В - восточный, ЮВ - юго-восточный, Ю - южный, ЮЗ - юго-западный, З - западный, СЗ - северо-западный.
Видимость - горизонтальная дальность видимости в метрах или километрах. При видимости от 1 до 10 км при отсутствии осадков обычно наблюдается дымка, при ухудшении видимости до 1 км и менее - туман. В сухую погоду видимость может ухудшаться дымом, пылью или мглою.
Явления - указаны атмосферные явления, наблюдавшиеся в срок или в последний час перед сроком; фигурными скобками обозначены явления, наблюдавшиеся между сроками (за 1-3 часа до срока); квадратными скобками обозначены град или гололедные отложения с указанием их диаметра в мм.
Облачность - указаны через наклонную черту общая и нижняя облачность в баллах и высота нижней границы облаков в метрах; квадратными скобками обозначены формы облаков: Ci - перистые, Cs - перисто-слоистые, Cc - перисто-кучевые, Ac - высококучевые, As - высокослоистые, Sc - слоисто-кучевые, Ns - слоисто-дождевые, Cu - кучевые, Cb - кучево-дождевые. Подробнее классификацию облаков см. в Атласе облаков (PDF).
T - Температура воздуха - температура, измеренная на высоте 2 м над землей.
Td - Температура точки росы - температура, при понижении до которой содержащийся в воздухе водяной пар достигнет насыщения.
f - Относительная влажность воздуха - влажноcть воздуха, измеренная на высоте 2 м над землей.
Te - Эффективная температура - температура, которую ощущает одетый по сезону человек в тени. Характеристика душности погоды. При расчете учитывается влияние влажности воздуха и скорости ветра на теплоощущения человека.
Tes - Эффективная температура на солнце - температура, которую ощущает человек, с поправкой на солнечный нагрев. Характеристика знойности погоды. Зависит от высоты солнца над горизонтом, облачности и скорости ветра. Ночью, в пасмурную погоду, а также при ветре 12 м/с и более поправка равна нулю.
P - Атмосферное давление - приведенное к уровню моря атмосферное давление.
Po - Атмосферное давление - измеренное на уровне метеостанции атмосферное давление.
Tmin - Минимальная температура - минимум температуры воздуха на высоте 2 м над землей.
Tmax - Максимальная температура - максимум температуры воздуха на высоте 2 м над землей.
R - Количество осадков - Количество выпавших осадков за период времени, мм. При наведении курсора мыши на число - период времени, за который выпало указанное количество осадков.
R24 - Количество осадков - Количество выпавших осадков за 24 часа, мм.
S - Снежный покров - Высота снежного покрова, см. При наведении курсора мыши на число - состояние снежного покрова и степень покрытия местности в баллах.